Location: Unspecified
(42.9300°N, 71.1866°W)
Time: 07:36:34
(UTC-05:00)

Genesis I - Visible Passes

Search period start: 24 February 2017 00:00
Search period end: 06 March 2017 00:00
Orbit: 510 x 522 km, 64.5° (Epoch: 23 February)

Date Brightness Start Highest point End Pass type
(mag) Time Alt. Az. Time Alt. Az. Time Alt. Az.
24 Feb 3.8 19:23:19 10° NW 19:27:10 54° WSW 19:28:05 42° SSW visible
25 Feb 3.9 19:07:40 10° NW 19:11:31 53° WSW 19:13:57 20° S visible
26 Feb 4.0 18:52:02 10° NW 18:55:52 51° WSW 18:59:40 10° SSE visible
27 Feb 4.1 18:36:23 10° NW 18:40:13 50° WSW 18:44:00 10° SSE visible
28 Feb 4.3 18:20:45 10° NW 18:24:34 48° WSW 18:28:20 10° SSE visible
01 Mar 4.4 18:05:06 10° NW 18:08:54 47° WSW 18:12:39 10° SSE visible
